Weather Roundup
Issued by NWS Springfield, MO

Home | Current Version | Previous Version | Text Only | Print | Product List | Glossary On
Versions: 1 2 3 4 5 6 7 8 9 10 11 12 13 14 15 16 17 18 19 20 21 22 23 24 25 26 27 28 29 30 31 32 33 34 35 36 37 38 39 40 41 42 43 44 45 46 47 48 49 50
000
NZUS99 KSGF 061959
HRRSGF

HOURLY WEATHER
NATIONAL WEATHER SERVICE SPRINGFIELD MO
200 PM CST FRI MAR 06 2015

......SGF CWA......

CITY           SKY/WX    TMP DP  RH WIND       PRES   REMARKS
SPRINGFIELD    SUNNY     49  27  42 SW17      30.36
JOPLIN         SUNNY     52  29  41 SW13G24   30.37
WEST PLAINS    SUNNY     40  21  46 S10       30.41F WCI  33
ROLLA          SUNNY     48  25  40 SW21      30.29
OSAGE BEACH    SUNNY     52  27  37 SW18G25   30.30F
BRANSON        SUNNY     48  23  37 W7        30.41F

......SURROUNDING SGF CWA......

CITY           SKY/WX    TMP DP  RH WIND       PRES   REMARKS
CHANUTE        SUNNY     56  29  35 SW17G25   30.33
PARSONS        SUNNY     56  29  35 SW16G23   30.36
COFFEYVILLE    SUNNY     56  28  34 SW15G23   30.36
EMPORIA        SUNNY     58  27  30 SW20G25   30.27
SILOAM SPRINGS SUNNY     48  27  43 SW13G21   30.43F
HARRISON AR    SUNNY     47  24  40 W9        30.41
NEAR YELLVILLE SUNNY     48  25  40 SW10G16   30.42F

......KANSAS AND MISSOURI......

CITY           SKY/WX    TMP DP  RH WIND       PRES   REMARKS
KANSAS CTY INT MOSUNNY   55  24  30 SW13      30.25F
DOWNTOWN KC    SUNNY     57  24  28 W10       30.26
COLUMBIA       SUNNY     53  28  38 SW13G25   30.26
SEDALIA        SUNNY     51  30  44 SW17      30.28
ST JOSEPH      SUNNY     57  24  28 SW10      30.23F
ST LOUIS       MOSUNNY   47  19  33 S16       30.30F
SPIRIT OF STL  SUNNY     47  22  37 SW16G26   30.29
KIRKSVILLE     SUNNY     52  24  33 W9G20     30.21
WICHITA        SUNNY     58  28  32 SW22      30.30F
TOPEKA         SUNNY     59  22  24 W12G22    30.25F
OLATHE         SUNNY     53  28  38 SW15G24   30.26F

......TENNESSEE......

CITY           SKY/WX    TMP DP  RH WIND       PRES   REMARKS
MEMPHIS        SUNNY     38  12  34 CALM      30.53
NASHVILLE      SUNNY     34  18  52 CALM      30.51

......ARKANSAS.......

CITY           SKY/WX    TMP DP  RH WIND       PRES   REMARKS
FAYETTEVILLE   SUNNY     47  27  45 S9G21     30.42
FT SMITH       SUNNY     49  23  36 W8        30.47
LITTLE ROCK    SUNNY     37  18  46 SE8       30.54  WCI  31

......OKLAHOMA.......

CITY           SKY/WX    TMP DP  RH WIND       PRES   REMARKS
TULSA          SUNNY     55  26  32 SW9       30.39F
PONCA CITY     SUNNY     57  28  33 SW13G24   30.36F
MCALESTER      SUNNY     50  27  40 SW15      30.47F
OKLAHOMA CITY  SUNNY     55  24  30 SW17G24   30.41

......IOWA............

CITY           SKY/WX    TMP DP  RH WIND       PRES   REMARKS
DES MOINES     MOSUNNY   52  21  29 SW13      30.15
QUAD CITIES    SUNNY     33  20  58 SW15      30.20  WCI  23

......ILLINOIS........

CITY           SKY/WX    TMP DP  RH WIND       PRES   REMARKS
QUINCY         SUNNY     40  24  53 SW16      30.23  WCI  31
CHICAGO        MOSUNNY   25  11  55 S17       30.21F WCI  12



USA.gov is the U.S. government's official web portal to all federal, state and local government web resources and services.